EW1549 Weather Reports


time (UTC)temp
C
wind
direction
speed
KPH
gust
KPH
rain 1hr
cm
rain 24hr
cm
rain mn
cm
humidity
%
barometer
mb
20260904121520 -17 19 6.4 14.5 0.00 0.00 0.00 1019.4
20260904120020 -17 31 9.7 20.9 0.00 0.00 0.00 1019.4
20260904114511 -17 36 11.3 19.3 0.00 0.00 0.00 1019.5
20260904113019 -17 19 11.3 17.7 0.00 0.00 0.00 1019.7
20260904111502 -17 10 6.4 14.5 0.00 0.00 0.00 1019.9
20260904104559 -17 355 8.0 14.5 0.00 0.00 0.00 1019.6
20260904103057 -17 284 1.6 6.4 0.00 0.00 0.00 1019.7
20260904101552 -17 254 0.0 0.0 0.00 0.00 0.00 1019.8
20260904100045 -17 254 0.0 0.0 0.00 0.00 0.00 1019.7
20260904094556 -17 254 3.2 4.8 0.00 0.00 0.00 1019.6
20260904093035 -17 254 0.0 0.0 0.00 0.00 0.00 1019.7
20260904091530 -17 254 0.0 4.8 0.00 0.00 0.00 1019.8
20260904090025 -17 254 3.2 6.4 0.00 0.00 0.00 1019.7
20260904084521 -17 254 3.2 6.4 0.00 0.00 0.00 1019.5
20260904083031 -17 254 0.0 4.8 0.00 0.00 0.00 1019.4
20260904081513 -17 254 0.0 0.0 0.00 0.00 0.00 1019.4
20260904080008 -17 254 0.0 0.0 0.00 0.00 0.00 1019.3
20260904074503 -17 254 0.0 0.0 0.00 0.00 0.00 1019.4
20260904073115 -17 254 0.0 0.0 0.00 0.00 0.00 1019.2
20260904071555 -17 254 0.0 0.0 0.00 0.00 0.00 1019.0
20260904070051 -17 254 0.0 0.0 0.00 0.00 0.00 1019.0
20260904064547 -17 254 0.0 0.0 0.00 0.00 0.00 1019.1
20260904063045 -17 254 0.0 0.0 0.00 0.00 0.00 1019.0
20260904061537 -17 254 0.0 3.2 0.00 0.00 0.00 1018.7
20260904060051 -17 254 1.6 6.4 0.00 0.00 0.00 1018.8
20260904054540 -17 254 4.8 8.0 0.00 0.00 0.00 1018.9
20260904053033 -17 254 4.8 8.0 0.00 0.00 0.00 1018.8
20260904051516 -17 254 3.2 6.4 0.00 0.00 0.00 1018.9
20260904050027 -17 254 0.0 0.0 0.00 0.00 0.00 1018.8
20260904044507 -17 254 0.0 0.0 0.00 0.00 0.00 1018.7
20260904043104 -17 254 0.0 0.0 0.00 0.00 0.00 1018.6
20260904041604 -17 254 0.0 3.2 0.00 0.00 0.00 1018.5
20260904040050 -17 254 3.2 4.8 0.00 0.00 0.00 1018.4
20260904034536 -17 254 0.0 0.0 0.00 0.00 0.00 1018.5
20260904033027 -17 254 0.0 0.0 0.00 0.00 0.00 1018.7
20260904031521 -17 254 0.0 0.0 0.00 0.00 0.00 1018.7
20260904030019 -17 254 1.6 4.8 0.00 0.00 0.00 1018.7
20260904024521 -17 254 1.6 3.2 0.00 0.00 0.00 1018.8
20260904023007 -17 254 1.6 4.8 0.00 0.00 0.00 1018.8
20260904021507 -17 254 3.2 6.4 0.00 0.00 0.00 1019.2
20260904014617 -17 254 0.0 0.0 0.00 0.00 0.00 1019.6
20260904013105 -17 254 0.0 0.0 0.00 0.00 0.00 1019.7
20260904011545 -17 254 0.0 0.0 0.00 0.00 0.00 1019.8
20260904010041 -17 254 0.0 0.0 0.00 0.00 0.00 1019.8
20260904004538 -17 254 0.0 0.0 0.00 0.00 0.00 1019.8
20260904003035 -17 254 0.0 4.8 0.00 0.00 0.00 1019.9
20260904001627 -17 254 3.2 4.8 0.00 0.00 0.00 1020.1
20260904000024 -17 254 0.0 0.0 0.00 0.00 0.00 1020.3
20260903234531 -17 254 0.0 0.0 0.00 0.00 0.00 1020.3
20260903233028 -17 254 0.0 0.0 0.00 0.00 0.00 1020.2
20260903231510 -17 254 0.0 0.0 0.00 0.00 0.00 1020.2
20260903230107 -17 254 0.0 0.0 0.00 0.00 0.00 1020.2
20260903224505 -17 254 0.0 3.2 0.00 0.00 0.00 1020.2
20260903223002 -17 254 3.2 4.8 0.00 0.00 0.00 1020.3
20260903221557 -17 254 0.0 0.0 0.00 0.00 0.00 1020.5
20260903220052 -17 254 0.0 0.0 0.00 0.00 0.00 1020.4
20260903214551 -17 254 0.0 4.8 0.00 0.00 0.00 1020.2
20260903213045 -17 254 3.2 6.4 0.00 0.00 0.00 1020.1
20260903211553 -17 254 0.0 0.0 0.00 0.00 0.00 1020.0
20260903210035 -17 254 0.0 0.0 0.00 0.00 0.00 1019.8
20260903204530 -17 254 0.0 0.0 0.00 0.00 0.00 1019.6
20260903203029 -17 254 0.0 0.0 0.00 0.00 0.00 1019.2
20260903201522 -17 254 3.2 6.4 0.00 0.00 0.00 1018.9
20260903200021 -17 254 0.0 6.4 0.00 0.00 0.00 1018.7
20260903194521 -17 320 0.0 8.0 0.00 0.00 0.00 1018.6
20260903193020 -17 268 4.8 9.7 0.00 0.00 0.00 1018.7
20260903191525 -17 341 4.8 12.9 0.00 0.00 0.00 1018.5
20260903190016 -17 41 4.8 8.0 0.00 0.00 0.00 1018.3
20260903184516 -17 19 0.0 16.1 0.00 0.00 0.00 1018.3
20260903183016 -17 322 0.0 14.5 0.00 0.00 0.00 1018.3
20260903181512 -17 331 8.0 14.5 0.00 0.00 0.00 1018.3
20260903180015 -17 16 9.7 20.9 0.00 0.00 0.00 1018.3
20260903174504 -17 357 9.7 20.9 0.00 0.00 0.00 1018.1
20260903173105 -17 30 4.8 17.7 0.00 0.00 0.00 1018.2
20260903171601 -17 41 11.3 19.3 0.00 0.00 0.00 1018.3
20260903170050 -17 28 0.0 14.5 0.00 0.00 0.00 1018.3
20260903164548 -17 58 9.7 17.7 0.00 0.00 0.00 1018.1
20260903163043 -17 63 11.3 20.9 0.00 0.00 0.00 1018.2
20260903161537 -17 21 14.5 24.1 0.00 0.00 0.00 1018.3
20260903160033 -17 359 12.9 27.4 0.00 0.00 0.00 1018.5
20260903154529 -17 41 8.0 24.1 0.00 0.00 0.00 1018.7
20260903153024 -17 54 12.9 22.5 0.00 0.00 0.00 1018.7
20260903151521 -17 66 9.7 24.1 0.00 0.00 0.00 1018.8
20260903150016 -17 41 11.3 20.9 0.00 0.00 0.00 1018.5
20260903144511 -17 41 9.7 24.1 0.00 0.00 0.00 1018.2
20260903143006 -17 32 16.1 22.5 0.00 0.00 0.00 1018.1
20260903141501 -17 52 9.7 22.5 0.00 0.00 0.00 1018.3
20260903140058 -17 46 9.7 22.5 0.00 0.00 0.00 1017.9
20260903134601 -17 26 16.1 25.7 0.00 0.00 0.00 1017.8
20260903133104 -17 36 17.7 25.7 0.00 0.00 0.00 1018.1
20260903131544 -17 60 14.5 22.5 0.00 0.00 0.00 1017.9
20260903130055 -17 46 14.5 25.7 0.00 0.00 0.00 1018.1
20260903124550 -17 25 19.3 29.0 0.00 0.00 0.00 1018.3
20260903123032 -17 36 9.7 22.5 0.00 0.00 0.00 1018.5